Regional Weather Roundup
Issued by NWS

Home | Current Version | Previous Version | Graphics & Text | Print | Product List | Glossary On
Versions: 1 2 3 4 5 6 7 8 9 10 11 12 13 14 15 16 17 18 19 20 21 22 23 24 25 26 27 28 29 30 31 32 33 34 35 36 37 38 39 40 41 42 43 44 45 46 47
000
ASUS45 KBOU 211510
RWRCO

WEATHER ROUNDUP FOR COLORADO
NATIONAL WEATHER SERVICE PUEBLO CO
900 AM MDT SAT APR 21 2018

NOTE: "FAIR" INDICATES FEW OR NO CLOUDS BELOW 12000 FEET WITH NO
SIGNIFICANT WEATHER AND/OR OBSTRUCTIONS TO VISIBILITY.

COZ001>005-013-030-031-211600-
...NORTHWEST COLORADO...

CITY           SKY/WX    TMP DP  RH WIND       PRES   REMARKS
CRAIG          CLOUDY    41  33  73 CALM      30.17S
HAYDEN         CLOUDY    36  32  85 SW5       30.19R
MEEKER         CLOUDY    38  33  82 E3        30.18R
RABBIT EARS PA NOT AVBL
STEAMBOAT SPGS CLOUDY    32  32  99 CALM      30.18R
WALDEN         CLOUDY    30  28  93 N12       30.18R WCI  21
$$

COZ006>008-011-211600-
...WEST CENTRAL VALLEYS...

CITY           SKY/WX    TMP DP  RH WIND       PRES   REMARKS
GRAND JUNCTION PTSUNNY   48  39  71 NW5       30.17R
MONTROSE       CLOUDY    39  36  89 W5        30.20S
EAGLE          CLOUDY    36  35  96 CALM      30.20R
RIFLE          CLOUDY    40  36  86 E5        30.18S
DELTA          NOT AVBL
NUCLA          CLOUDY    41  36  81 CALM      30.22R
$$

COZ017>023-064>068-211600-
...SOUTHWEST COLORADO...

CITY           SKY/WX    TMP DP  RH WIND       PRES   REMARKS
DURANGO        SUNNY     40  29  64 VRB6      30.11R
CORTEZ         CLOUDY    48  35  60 N13G18    30.14S
PAGOSA SPRINGS FAIR      37  23  59 CALM      30.12S
TELLURIDE      CLOUDY    30  29  97 W13       30.18S FOG     WCI  20
WOLF CREEK PAS SUNNY     21  16  79 NW9G18    30.20R WCI  11
$$

COZ009-010-012-014-032>034-037-058>063-211600-
...CENTRAL COLORADO...

CITY           SKY/WX    TMP DP  RH WIND       PRES   REMARKS
ASPEN          CLOUDY    33  30  88 CALM      30.16R
BUENA VISTA    PTSUNNY   32  29  87 SE7       30.15R WCI  26
COPPER MTN     NOT AVBL
BERTHOUD PASS  CLOUDY    16   5  62 NW15G24   30.14R WCI   1
COTTONWOOD PAS PTSUNNY   34  30  86 CALM      30.15R
GUNNISON       PTSUNNY   32  29  88 N6        30.16R WCI  26
KREMMLING      CLOUDY    37  32  81 CALM      30.17R
LEADVILLE      CLOUDY    27  23  85 N7        30.13S WCI  19
MONARCH PASS   CLOUDY    19  18  93 W10       30.25R WCI   8
SALIDA         PTSUNNY   35  31  87 SE5       30.23R WCI  31
SUNLIGHT       FOG      N/A N/A N/A MISG      30.23R VSB<1/4
WILKERSON PASS LGT SNOW N/A N/A N/A E5        30.17R VSB 1
$$

COZ069>075-211600-
...SAN LUIS VALLEY/SANGRE DE CRISTO MOUNTAINS...

CITY           SKY/WX    TMP DP  RH WIND       PRES   REMARKS
ALAMOSA        CLOUDY    38  27  64 N5        30.11R
DEL NORTE      PTSUNNY   35  26  68 CALM      30.13R
LA VETA PASS   PTSUNNY   30  23  74 CALM      30.24R
SAGUACHE       NOT AVBL
$$

COZ035-036-038>040-211600-
...NORTHERN COLORADO FRONT RANGE...

CITY           SKY/WX    TMP DP  RH WIND       PRES   REMARKS
DENVER INTL AP LGT SNOW  33  31  92 W8        30.16S VSB 3/4 WCI  26
DMNS CITY PARK NOT AVBL
AURORA         LGT SNOW  32  32 100 W5        30.17S FOG     WCI  27
FRONT RANGE AP SNOW      34  32  93 W7        30.16S VSB 1/2 WCI  28
ERIE MUNI ARPT LGT SNOW  33  33  99 N3        30.23S
BOULDER MUN AP LGT RAIN  34  34 100 NE6       30.17S WCI  29
CENTENNIAL     LGT SNOW  32  32 100 W6        30.16S FOG     WCI  26
BROOMFIELD     LGT SNOW  32  32 100 CALM      30.17F VSB 1
LOVELAND       LGT SNOW  33  32  96 N6        30.19S VSB 1   WCI  28
LONGMONT       CLOUDY    37  35  92 N6        30.20R
$$

COZ041-046-047-076>085-087-088-211600-
...PIKES PEAK/PALMER DIVIDE AND SOUTHERN FOOTHILLS...

CITY           SKY/WX    TMP DP  RH WIND       PRES   REMARKS
COLO. SPRINGS  LGT SNOW  34  29  82 N17       30.15R FOG     WCI  23
A. F. ACADEMY  PTSUNNY   32  30  93 N9        30.15R WCI  24
SCHRIEVER AFB  NOT AVBL
CHEYENNE MTN   NOT AVBL
ELLICOTT         N/A    N/A N/A N/A N14       30.14R
FALCON         CLOUDY    33  29  88 NW9       30.16R FOG     WCI  25
FORT CARSON    PTSUNNY   34  30  86 N14       30.15R WCI  24
LIMON          LGT SNOW  33  32  96 CALM      30.15S FOG
MONUMENT HILL  LGT SNOW  28  28 100 NW10      30.16S WCI  19
CANON CITY     CLOUDY    37  36  93 S9        30.16R
WALSENBURG     CLOUDY    39  36  87 N14       30.14R
TRINIDAD       CLOUDY    38  37  97 NW13      30.12S
$$

COZ042>045-048>051-090-091-211600-
...NORTHEAST COLORADO...

CITY           SKY/WX    TMP DP  RH WIND       PRES   REMARKS
GREELEY ARPT   LGT SNOW  33  32  96 N5        30.20R VSB 1   WCI  29
AKRON          LGT SNOW  32  32 100 E7        30.17S FOG     WCI  26
BURLINGTON     FOG       37  37 100 E8        30.17R VSB 1/4
WRAY           LGT RAIN  36  36 100 E6        30.20S
YUMA           NOT AVBL
STERLING       NOT AVBL
HOLYOKE        DRIZZLE   39  36  87 E8        30.21R
FORT MORGAN    LGT SNOW  32  32  99 NE7       30.20R WCI  26
$$

COZ086-089-092>099-211600-
...SOUTHEAST COLORADO...

CITY           SKY/WX    TMP DP  RH WIND       PRES   REMARKS
PUEBLO         LGT RAIN  41  39  93 N7        30.15R FOG
LA JUNTA       LGT RAIN  42  40  92 NE10      30.14R FOG
LAMAR          CLOUDY    41  39  93 NE9       30.13R FOG
SPRINGFIELD      N/A     41  41 100 E6        30.09S
$$





USA.gov is the U.S. government's official web portal to all federal, state and local government web resources and services.